Regional Weather Roundup
Issued by NWS Charleston, SC

Current Version | Previous Version | Graphics & Text | Print | Product List | Glossary On
Versions: 1 2 3 4 5 6 7 8 9 10 11 12 13 14 15 16 17 18 19 20 21 22 23 24 25 26 27 28 29 30 31 32 33 34 35 36 37 38 39 40 41 42 43 44 45 46 47 48 49 50
000
ASUS42 KCHS 251410
RWRCHS
REGIONAL WEATHER ROUNDUP
NATIONAL WEATHER SERVICE CHARLESTON SC
1000 AM EDT SAT OCT 25 2014

NOTE: "FAIR" INDICATES FEW OR NO CLOUDS BELOW 12,000 FEET WITH NO
SIGNIFICANT WEATHER AND/OR OBSTRUCTIONS TO VISIBILITY.

NOT ALL STATIONS ARE QUALITY CONTROLLED BY THE NATIONAL
WEATHER SERVICE. USE DATA WITH CAUTION...ESPECIALLY
DEWPOINT OBSERVATIONS.

SCZ027-030-031-034>040-042>050-251500-
...SOUTH CAROLINA...

CITY           SKY/WX    TMP DP  RH WIND       PRES   REMARKS
N CHARLESTON   SUNNY     65  52  62 N6        30.03S
WATERFRONT PRK   N/A     64 N/A N/A N9          N/A
FORT JOHNSON   NOT AVBL
JOHNS ISLAND   SUNNY     64  55  72 N6        30.03S
PINOPOLIS      NOT AVBL
MONCKS CORNER  FAIR      64  55  72 CALM      30.03S
SUMMERVILLE    FAIR      61  54  77 CALM      30.04S
BEAUFORT MCAS  SUNNY     62  53  72 N6        30.04R
BEAUFORT ARPT  FAIR      63  54  72 N3        30.03R
HILTON HEAD IS SUNNY     63  54  72 N7        30.05R
GEORGETOWN     NOT AVBL
WALTERBORO     SUNNY     63  50  63 CALM      30.04F
ORANGEBURG     SUNNY     58  49  72 CALM      30.05S
BARNWELL       FAIR      61  50  67 CALM      30.06S
AIKEN          FAIR      55  50  82 NE6       30.09R
MANNING        FAIR      57  52  82 CALM      30.04S
KINGSTREE      NOT AVBL
COLUMBIA       SUNNY     55  48  77 CALM      30.06R
SUMTER         NOT AVBL
FLORENCE       SUNNY     59  43  55 NE6       30.03S
MYRTLE BEACH   SUNNY     57  48  72 N9        30.02S
N MYRTLE BEACH SUNNY     60  49  66 N3        30.02S

$$

GAZ063-065-086>088-099>101-113>116-118-119-134-136>141-150-251500-
...GEORGIA...

CITY           SKY/WX    TMP DP  RH WIND       PRES   REMARKS
SAVANNAH ARPT  SUNNY     63  50  62 N3        30.05R
HUNTER AAF     NOT AVBL
FORT STEWART   NOT AVBL
STATESBORO     NOT AVBL
SYLVANIA       SUNNY     64  57  79 CALM      30.06S
CLAXTON        FAIR      57  55  94 CALM      30.04F
THOMSON        SUNNY     54  54 100 CALM      30.11R
AUGUSTA-BUSH   SUNNY     57  48  72 N3        30.06R
AUGUSTA-DANIEL SUNNY     60  45  57 N8        30.06R
SWAINSBORO     FAIR      61  52  72 MISG      30.06R
VIDALIA        SUNNY     59  50  72 CALM      30.05S
ALMA           SUNNY     61  50  67 NW3       30.04R
WAYCROSS       SUNNY     64  56  76 NW5       30.05R
JESUP          FAIR      63  55  77 NW6       30.05R
BRUNSWICK      SUNNY     61  54  77 NW5       30.05R
SAINT SIMONS   SUNNY     62  53  72 NW8       30.03R

$$

SCZ027-028-034-036>038-045-046-048>050-GAZ119-141-251500-
...LAKE AND SUPPLEMENTAL COASTAL OBSERVATIONS...

STATION/POSITION TIME  TEMP    WIND        PRES    WAVE   SWELL
                       AIR SEA DIR/SP/G            HT/PER HT/PER/DIR
                 (UTC) (F)     (DEG/KT/KT) (MB)    (FT/S) (FT/S/D)
UPR LAKE MARION  NOT AVBL
WINYAH BAY       1300   54     320/  7     1016.0S
LAKE MURRAY      1300   55     310/  1/  3 1017.3R
ACE BASIN NERRS  1300   52      20/  1     1016.0S
FORT PULASKI     1400   60     300/  8/  9 1017.3S
SAPELO ISLAND    NOT AVBL

$$

ANZ835-935-AMZ111-154-330-350-352-354-374-450-454-472-251500-
...C-MAN AND BUOY OBSERVATIONS...

STATION/POSITION TIME  TEMP    WIND        PRES    WAVE   SWELL
                       AIR SEA DIR/SP/G            HT/PER HT/PER/DIR
                 (UTC) (F)     (DEG/KT/KT) (MB)    (FT/S) (FT/S/D)
FOLLY BEACH CMAN 1300   62     350/  7/ 10 1016.9R
BUOY 41004       1400   68 78  340/ 10/ 14 1015.6R   3/10   3/10
BUOY 41008       1400   67 75  340/ 14/ 16 1016.5R   2/10   2/120/10
5E ST. MARYS GA  1400      75                N/A     2/11   2/ 80/11
FRYING PAN BUOY  1400   67 74  350/  6/  8 1016.5S   2/10   2/ 90/10
BUOY 41025       1400   65     350/  8/ 10 1015.1F   3/ 8   3/ 40/ 8
CAPE LOOKOUT NC  1300   60     350/ 10/ 12 1015.6R
BUOY 41002       1311   72 77   20/ 12/ 16 1013.8R   3/ 8   3/ 10/ 8
BUOY 41010       1400   77 82   10/ 12/ 17 1013.7R   3/ 6   2/120/ 6
BUOY 41012       NOT AVBL
ST AUGUSTINE FL  1400   67     330/ 10/ 12 1016.7R
CAPERS NEARSHORE NOT AVBL
FRIPP NEARSHORE  NOT AVBL


$$



USA.gov is the U.S. government's official web portal to all federal, state and local government web resources and services.